#	Date Time	Temp C 
5	7/11/2014 15:38	16.427
6	7/11/2014 15:53	16.332
7	7/11/2014 16:08	16.332
8	7/11/2014 16:23	16.618
9	7/11/2014 16:38	16.999
10	7/11/2014 16:53	17.284
11	7/11/2014 17:08	17.189
12	7/11/2014 17:23	17.57
13	7/11/2014 17:38	17.379
14	7/11/2014 17:53	17.284
15	7/11/2014 18:08	17.284
16	7/11/2014 18:23	17.094
17	7/11/2014 18:38	17.189
18	7/11/2014 18:53	17.284
19	7/11/2014 19:08	17.284
20	7/11/2014 19:23	17.094
21	7/11/2014 19:38	17.094
22	7/11/2014 19:53	17.094
23	7/11/2014 20:08	17.094
24	7/11/2014 20:23	16.999
25	7/11/2014 20:38	16.903
26	7/11/2014 20:53	16.713
27	7/11/2014 21:08	16.618
28	7/11/2014 21:23	16.618
29	7/11/2014 21:38	16.523
30	7/11/2014 21:53	16.427
31	7/11/2014 22:08	16.427
32	7/11/2014 22:23	16.427
33	7/11/2014 22:38	16.427
34	7/11/2014 22:53	16.427
35	7/11/2014 23:08	16.523
36	7/11/2014 23:23	16.618
37	7/11/2014 23:38	16.618
38	7/11/2014 23:53	16.618
39	7/12/2014 0:08	16.523
40	7/12/2014 0:23	16.523
41	7/12/2014 0:38	16.618
42	7/12/2014 0:53	16.618
43	7/12/2014 1:08	16.618
44	7/12/2014 1:23	16.523
45	7/12/2014 1:38	16.237
46	7/12/2014 1:53	16.237
47	7/12/2014 2:08	16.332
48	7/12/2014 2:23	16.427
49	7/12/2014 2:38	16.523
50	7/12/2014 2:53	16.618
51	7/12/2014 3:08	16.523
52	7/12/2014 3:23	16.618
53	7/12/2014 3:38	16.523
54	7/12/2014 3:53	16.427
55	7/12/2014 4:08	16.332
56	7/12/2014 4:23	16.237
57	7/12/2014 4:38	16.332
58	7/12/2014 4:53	16.237
59	7/12/2014 5:08	16.332
60	7/12/2014 5:23	16.332
61	7/12/2014 5:38	16.332
62	7/12/2014 5:53	16.332
63	7/12/2014 6:08	16.237
64	7/12/2014 6:23	16.237
65	7/12/2014 6:38	16.141
66	7/12/2014 6:53	16.141
67	7/12/2014 7:08	16.141
68	7/12/2014 7:23	15.951
69	7/12/2014 7:38	15.855
70	7/12/2014 7:53	15.951
71	7/12/2014 8:08	16.046
72	7/12/2014 8:23	16.141
73	7/12/2014 8:38	16.141
74	7/12/2014 8:53	16.141
75	7/12/2014 9:08	16.141
76	7/12/2014 9:23	16.237
77	7/12/2014 9:38	16.046
78	7/12/2014 9:53	16.141
79	7/12/2014 10:08	16.046
80	7/12/2014 10:23	15.951
81	7/12/2014 10:38	15.855
82	7/12/2014 10:53	15.951
83	7/12/2014 11:08	15.855
84	7/12/2014 11:23	15.951
85	7/12/2014 11:38	15.76
86	7/12/2014 11:53	15.76
87	7/12/2014 12:08	15.855
88	7/12/2014 12:23	15.76
89	7/12/2014 12:38	15.855
90	7/12/2014 12:53	16.046
91	7/12/2014 13:08	16.046
92	7/12/2014 13:23	15.951
93	7/12/2014 13:38	15.951
94	7/12/2014 13:53	16.046
95	7/12/2014 14:08	16.141
96	7/12/2014 14:23	16.141
97	7/12/2014 14:38	15.951
98	7/12/2014 14:53	15.951
99	7/12/2014 15:08	15.855
100	7/12/2014 15:23	15.282
101	7/12/2014 15:38	15.091
102	7/12/2014 15:53	14.996
103	7/12/2014 16:08	14.804
104	7/12/2014 16:23	14.9
105	7/12/2014 16:38	15.378
106	7/12/2014 16:53	15.664
107	7/12/2014 17:08	15.664
108	7/12/2014 17:23	15.76
109	7/12/2014 17:38	15.855
110	7/12/2014 17:53	15.951
111	7/12/2014 18:08	16.141
112	7/12/2014 18:23	16.046
113	7/12/2014 18:38	16.046
114	7/12/2014 18:53	16.141
115	7/12/2014 19:08	16.237
116	7/12/2014 19:23	15.951
117	7/12/2014 19:38	15.951
118	7/12/2014 19:53	15.855
119	7/12/2014 20:08	15.76
120	7/12/2014 20:23	15.76
121	7/12/2014 20:38	15.664
122	7/12/2014 20:53	15.569
123	7/12/2014 21:08	15.569
124	7/12/2014 21:23	15.187
125	7/12/2014 21:38	14.996
126	7/12/2014 21:53	14.804
127	7/12/2014 22:08	15.091
128	7/12/2014 22:23	14.9
129	7/12/2014 22:38	14.804
130	7/12/2014 22:53	14.613
131	7/12/2014 23:08	14.709
132	7/12/2014 23:23	14.709
133	7/12/2014 23:38	14.709
134	7/12/2014 23:53	14.613
135	7/13/2014 0:08	14.709
136	7/13/2014 0:23	14.709
137	7/13/2014 0:38	14.709
138	7/13/2014 0:53	14.613
139	7/13/2014 1:08	14.421
140	7/13/2014 1:23	14.325
141	7/13/2014 1:38	14.134
142	7/13/2014 1:53	14.038
143	7/13/2014 2:08	13.846
144	7/13/2014 2:23	13.75
145	7/13/2014 2:38	13.846
146	7/13/2014 2:53	13.846
147	7/13/2014 3:08	13.942
148	7/13/2014 3:23	13.942
149	7/13/2014 3:38	13.846
150	7/13/2014 3:53	13.942
151	7/13/2014 4:08	14.134
152	7/13/2014 4:23	14.325
153	7/13/2014 4:38	14.134
154	7/13/2014 4:53	13.942
155	7/13/2014 5:08	14.134
156	7/13/2014 5:23	14.23
157	7/13/2014 5:38	14.23
158	7/13/2014 5:53	14.134
159	7/13/2014 6:08	14.038
160	7/13/2014 6:23	14.038
161	7/13/2014 6:38	14.038
162	7/13/2014 6:53	14.038
163	7/13/2014 7:08	13.942
164	7/13/2014 7:23	13.942
165	7/13/2014 7:38	13.942
166	7/13/2014 7:53	13.942
167	7/13/2014 8:08	13.846
168	7/13/2014 8:23	13.846
169	7/13/2014 8:38	13.942
170	7/13/2014 8:53	13.942
171	7/13/2014 9:08	13.846
172	7/13/2014 9:23	13.75
173	7/13/2014 9:38	13.846
174	7/13/2014 9:53	13.846
175	7/13/2014 10:08	13.75
176	7/13/2014 10:23	13.846
177	7/13/2014 10:38	13.846
178	7/13/2014 10:53	13.75
179	7/13/2014 11:08	13.846
180	7/13/2014 11:23	13.942
181	7/13/2014 11:38	13.942
182	7/13/2014 11:53	13.846
183	7/13/2014 12:08	13.846
184	7/13/2014 12:23	13.942
185	7/13/2014 12:38	13.942
186	7/13/2014 12:53	13.75
187	7/13/2014 13:08	13.75
188	7/13/2014 13:23	14.038
189	7/13/2014 13:38	13.846
190	7/13/2014 13:53	13.942
191	7/13/2014 14:08	14.038
192	7/13/2014 14:23	14.038
193	7/13/2014 14:38	14.134
194	7/13/2014 14:53	14.23
195	7/13/2014 15:08	14.038
196	7/13/2014 15:23	14.038
197	7/13/2014 15:38	14.038
198	7/13/2014 15:53	13.654
199	7/13/2014 16:08	13.461
200	7/13/2014 16:23	13.558
201	7/13/2014 16:38	13.558
202	7/13/2014 16:53	13.654
203	7/13/2014 17:08	13.75
204	7/13/2014 17:23	13.75
205	7/13/2014 17:38	13.942
206	7/13/2014 17:53	14.038
207	7/13/2014 18:08	14.23
208	7/13/2014 18:23	14.325
209	7/13/2014 18:38	14.325
210	7/13/2014 18:53	14.613
211	7/13/2014 19:08	14.613
212	7/13/2014 19:23	14.804
213	7/13/2014 19:38	14.804
214	7/13/2014 19:53	14.9
215	7/13/2014 20:08	14.804
216	7/13/2014 20:23	14.613
217	7/13/2014 20:38	14.517
218	7/13/2014 20:53	14.517
219	7/13/2014 21:08	14.421
220	7/13/2014 21:23	14.325
221	7/13/2014 21:38	14.038
222	7/13/2014 21:53	13.75
223	7/13/2014 22:08	13.75
224	7/13/2014 22:23	14.325
225	7/13/2014 22:38	13.269
226	7/13/2014 22:53	13.461
227	7/13/2014 23:08	13.365
228	7/13/2014 23:23	13.461
229	7/13/2014 23:38	13.461
230	7/13/2014 23:53	13.269
231	7/14/2014 0:08	13.365
232	7/14/2014 0:23	13.365
233	7/14/2014 0:38	13.269
234	7/14/2014 0:53	13.269
235	7/14/2014 1:08	13.365
236	7/14/2014 1:23	13.461
237	7/14/2014 1:38	13.365
238	7/14/2014 1:53	13.269
239	7/14/2014 2:08	13.269
240	7/14/2014 2:23	13.173
241	7/14/2014 2:38	13.173
242	7/14/2014 2:53	13.076
243	7/14/2014 3:08	13.076
244	7/14/2014 3:23	13.076
245	7/14/2014 3:38	12.98
246	7/14/2014 3:53	12.98
247	7/14/2014 4:08	12.98
248	7/14/2014 4:23	12.883
249	7/14/2014 4:38	12.98
250	7/14/2014 4:53	12.98
251	7/14/2014 5:08	12.98
252	7/14/2014 5:23	12.98
253	7/14/2014 5:38	13.076
254	7/14/2014 5:53	13.173
255	7/14/2014 6:08	12.98
256	7/14/2014 6:23	12.98
257	7/14/2014 6:38	13.076
258	7/14/2014 6:53	12.98
259	7/14/2014 7:08	12.98
260	7/14/2014 7:23	12.98
261	7/14/2014 7:38	12.98
262	7/14/2014 7:53	12.883
263	7/14/2014 8:08	12.883
264	7/14/2014 8:23	12.883
265	7/14/2014 8:38	12.98
266	7/14/2014 8:53	12.883
267	7/14/2014 9:08	12.69
268	7/14/2014 9:23	12.787
269	7/14/2014 9:38	12.883
270	7/14/2014 9:53	12.787
271	7/14/2014 10:08	12.883
272	7/14/2014 10:23	12.98
273	7/14/2014 10:38	12.787
274	7/14/2014 10:53	12.883
275	7/14/2014 11:08	12.883
276	7/14/2014 11:23	12.883
277	7/14/2014 11:38	12.883
278	7/14/2014 11:53	12.883
279	7/14/2014 12:08	12.883
280	7/14/2014 12:23	12.98
281	7/14/2014 12:38	13.076
282	7/14/2014 12:53	13.076
283	7/14/2014 13:08	13.076
284	7/14/2014 13:23	13.173
285	7/14/2014 13:38	13.173
286	7/14/2014 13:53	13.076
287	7/14/2014 14:08	12.98
288	7/14/2014 14:23	12.98
289	7/14/2014 14:38	12.98
290	7/14/2014 14:53	12.98
291	7/14/2014 15:08	12.98
292	7/14/2014 15:23	13.076
293	7/14/2014 15:38	13.269
294	7/14/2014 15:53	13.365
295	7/14/2014 16:08	13.173
296	7/14/2014 16:23	12.98
297	7/14/2014 16:38	12.98
298	7/14/2014 16:53	12.98
299	7/14/2014 17:08	13.269
300	7/14/2014 17:23	12.883
301	7/14/2014 17:38	12.883
302	7/14/2014 17:53	12.98
303	7/14/2014 18:08	12.98
304	7/14/2014 18:23	13.076
305	7/14/2014 18:38	13.076
306	7/14/2014 18:53	13.173
307	7/14/2014 19:08	13.173
308	7/14/2014 19:23	12.98
309	7/14/2014 19:38	12.98
310	7/14/2014 19:53	12.98
311	7/14/2014 20:08	13.269
312	7/14/2014 20:23	13.269
313	7/14/2014 20:38	13.75
314	7/14/2014 20:53	13.846
315	7/14/2014 21:08	13.846
316	7/14/2014 21:23	13.654
317	7/14/2014 21:38	13.461
318	7/14/2014 21:53	13.75
319	7/14/2014 22:08	13.75
320	7/14/2014 22:23	13.654
321	7/14/2014 22:38	13.558
322	7/14/2014 22:53	13.461
323	7/14/2014 23:08	13.365
324	7/14/2014 23:23	13.269
325	7/14/2014 23:38	13.076
326	7/14/2014 23:53	13.076
327	7/15/2014 0:08	12.98
328	7/15/2014 0:23	12.98
329	7/15/2014 0:38	12.98
330	7/15/2014 0:53	12.98
331	7/15/2014 1:08	12.98
332	7/15/2014 1:23	12.98
333	7/15/2014 1:38	12.883
334	7/15/2014 1:53	12.883
335	7/15/2014 2:08	12.98
336	7/15/2014 2:23	12.98
337	7/15/2014 2:38	12.98
338	7/15/2014 2:53	12.98
339	7/15/2014 3:08	12.98
340	7/15/2014 3:23	12.98
341	7/15/2014 3:38	12.98
342	7/15/2014 3:53	12.787
343	7/15/2014 4:08	12.69
344	7/15/2014 4:23	12.69
345	7/15/2014 4:38	12.69
346	7/15/2014 4:53	12.69
347	7/15/2014 5:08	12.69
348	7/15/2014 5:23	12.69
349	7/15/2014 5:38	12.594
350	7/15/2014 5:53	12.69
351	7/15/2014 6:08	12.69
352	7/15/2014 6:23	12.883
353	7/15/2014 6:38	12.883
354	7/15/2014 6:53	12.883
355	7/15/2014 7:08	12.883
356	7/15/2014 7:23	12.883
357	7/15/2014 7:38	12.883
358	7/15/2014 7:53	12.69
359	7/15/2014 8:08	12.594
360	7/15/2014 8:23	12.69
361	7/15/2014 8:38	12.69
362	7/15/2014 8:53	12.69
363	7/15/2014 9:08	12.594
364	7/15/2014 9:23	12.69
365	7/15/2014 9:38	12.69
366	7/15/2014 9:53	12.594
367	7/15/2014 10:08	12.594
368	7/15/2014 10:23	12.594
369	7/15/2014 10:38	12.594
370	7/15/2014 10:53	12.594
371	7/15/2014 11:08	12.594
372	7/15/2014 11:23	12.594
373	7/15/2014 11:38	12.594
374	7/15/2014 11:53	12.594
375	7/15/2014 12:08	12.69
376	7/15/2014 12:23	12.69
377	7/15/2014 12:38	12.69
378	7/15/2014 12:53	12.787
379	7/15/2014 13:08	12.787
380	7/15/2014 13:23	12.69
381	7/15/2014 13:38	12.69
382	7/15/2014 13:53	12.594
383	7/15/2014 14:08	12.594
384	7/15/2014 14:23	12.594
385	7/15/2014 14:38	12.594
386	7/15/2014 14:53	12.594
387	7/15/2014 15:08	12.594
388	7/15/2014 15:23	12.69
389	7/15/2014 15:38	12.787
390	7/15/2014 15:53	13.173
391	7/15/2014 16:08	13.076
392	7/15/2014 16:23	13.173
393	7/15/2014 16:38	13.173
394	7/15/2014 16:53	13.076
395	7/15/2014 17:08	12.883
396	7/15/2014 17:23	12.883
397	7/15/2014 17:38	12.69
398	7/15/2014 17:53	12.594
399	7/15/2014 18:08	12.497
400	7/15/2014 18:23	12.497
401	7/15/2014 18:38	12.497
402	7/15/2014 18:53	12.497
403	7/15/2014 19:08	12.497
404	7/15/2014 19:23	12.594
405	7/15/2014 19:38	12.594
406	7/15/2014 19:53	12.594
407	7/15/2014 20:08	12.594
408	7/15/2014 20:23	12.594
409	7/15/2014 20:38	12.594
410	7/15/2014 20:53	12.594
411	7/15/2014 21:08	12.497
412	7/15/2014 21:23	12.594
413	7/15/2014 21:38	12.594
414	7/15/2014 21:53	12.787
415	7/15/2014 22:08	12.98
416	7/15/2014 22:23	12.787
417	7/15/2014 22:38	12.98
418	7/15/2014 22:53	13.076
419	7/15/2014 23:08	13.173
420	7/15/2014 23:23	12.883
421	7/15/2014 23:38	12.69
422	7/15/2014 23:53	12.69
423	7/16/2014 0:08	12.69
424	7/16/2014 0:23	12.594
425	7/16/2014 0:38	12.594
426	7/16/2014 0:53	12.594
427	7/16/2014 1:08	12.594
428	7/16/2014 1:23	12.594
429	7/16/2014 1:38	12.594
430	7/16/2014 1:53	12.594
431	7/16/2014 2:08	12.69
432	7/16/2014 2:23	12.69
433	7/16/2014 2:38	12.69
434	7/16/2014 2:53	12.69
435	7/16/2014 3:08	12.69
436	7/16/2014 3:23	12.69
437	7/16/2014 3:38	12.69
438	7/16/2014 3:53	12.594
439	7/16/2014 4:08	12.497
440	7/16/2014 4:23	12.401
441	7/16/2014 4:38	12.401
442	7/16/2014 4:53	12.401
443	7/16/2014 5:08	12.401
444	7/16/2014 5:23	12.401
445	7/16/2014 5:38	12.497
446	7/16/2014 5:53	12.497
447	7/16/2014 6:08	12.594
448	7/16/2014 6:23	12.69
449	7/16/2014 6:38	12.594
450	7/16/2014 6:53	12.69
451	7/16/2014 7:08	12.594
452	7/16/2014 7:23	12.594
453	7/16/2014 7:38	12.594
454	7/16/2014 7:53	12.594
455	7/16/2014 8:08	12.787
456	7/16/2014 8:23	12.883
457	7/16/2014 8:38	12.883
458	7/16/2014 8:53	12.787
459	7/16/2014 9:08	12.69
460	7/16/2014 9:23	12.69
461	7/16/2014 9:38	12.594
462	7/16/2014 9:53	12.594
463	7/16/2014 10:08	12.594
464	7/16/2014 10:23	12.594
465	7/16/2014 10:38	12.594
466	7/16/2014 10:53	12.594
467	7/16/2014 11:08	12.594
468	7/16/2014 11:23	12.69
469	7/16/2014 11:38	12.594
470	7/16/2014 11:53	12.787
471	7/16/2014 12:08	12.69
472	7/16/2014 12:23	12.69
473	7/16/2014 12:38	12.787
474	7/16/2014 12:53	12.883
475	7/16/2014 13:08	12.883
476	7/16/2014 13:23	12.883
477	7/16/2014 13:38	12.787
478	7/16/2014 13:53	12.883
479	7/16/2014 14:08	12.69
480	7/16/2014 14:23	12.69
481	7/16/2014 14:38	12.787
482	7/16/2014 14:53	12.787
483	7/16/2014 15:08	12.787
484	7/16/2014 15:23	12.594
485	7/16/2014 15:38	12.594
486	7/16/2014 15:53	12.497
487	7/16/2014 16:08	12.497
488	7/16/2014 16:23	12.594
489	7/16/2014 16:38	12.883
490	7/16/2014 16:53	12.98
491	7/16/2014 17:08	12.98
492	7/16/2014 17:23	12.69
493	7/16/2014 17:38	12.594
494	7/16/2014 17:53	12.69
495	7/16/2014 18:08	12.98
496	7/16/2014 18:23	13.269
497	7/16/2014 18:38	12.69
498	7/16/2014 18:53	13.654
499	7/16/2014 19:08	13.558
500	7/16/2014 19:23	13.75
501	7/16/2014 19:38	13.942
502	7/16/2014 19:53	14.038
503	7/16/2014 20:08	13.558
504	7/16/2014 20:23	12.883
505	7/16/2014 20:38	12.787
506	7/16/2014 20:53	13.076
507	7/16/2014 21:08	13.461
508	7/16/2014 21:23	13.654
509	7/16/2014 21:38	13.365
510	7/16/2014 21:53	13.365
511	7/16/2014 22:08	13.365
512	7/16/2014 22:23	13.269
513	7/16/2014 22:38	13.269
514	7/16/2014 22:53	13.173
515	7/16/2014 23:08	13.076
516	7/16/2014 23:23	13.076
517	7/16/2014 23:38	12.98
518	7/16/2014 23:53	12.883
519	7/17/2014 0:08	12.98
520	7/17/2014 0:23	12.98
521	7/17/2014 0:38	12.98
522	7/17/2014 0:53	12.98
523	7/17/2014 1:08	12.98
524	7/17/2014 1:23	12.883
525	7/17/2014 1:38	12.883
526	7/17/2014 1:53	12.98
527	7/17/2014 2:08	12.883
528	7/17/2014 2:23	12.883
529	7/17/2014 2:38	12.883
530	7/17/2014 2:53	12.883
531	7/17/2014 3:08	12.787
532	7/17/2014 3:23	12.69
533	7/17/2014 3:38	12.69
534	7/17/2014 3:53	12.69
535	7/17/2014 4:08	12.69
536	7/17/2014 4:23	12.594
537	7/17/2014 4:38	12.594
538	7/17/2014 4:53	12.594
539	7/17/2014 5:08	12.594
540	7/17/2014 5:23	12.594
541	7/17/2014 5:38	12.594
542	7/17/2014 5:53	12.594
543	7/17/2014 6:08	12.594
544	7/17/2014 6:23	12.594
545	7/17/2014 6:38	12.594
546	7/17/2014 6:53	12.497
547	7/17/2014 7:08	12.497
548	7/17/2014 7:23	12.401
549	7/17/2014 7:38	12.401
550	7/17/2014 7:53	12.401
551	7/17/2014 8:08	12.594
552	7/17/2014 8:23	12.497
553	7/17/2014 8:38	12.401
554	7/17/2014 8:53	12.401
555	7/17/2014 9:08	12.401
556	7/17/2014 9:23	12.401
557	7/17/2014 9:38	12.401
558	7/17/2014 9:53	12.304
559	7/17/2014 10:08	12.401
560	7/17/2014 10:23	12.497
561	7/17/2014 10:38	12.304
562	7/17/2014 10:53	12.304
563	7/17/2014 11:08	12.304
564	7/17/2014 11:23	12.304
565	7/17/2014 11:38	12.304
566	7/17/2014 11:53	12.304
567	7/17/2014 12:08	12.304
568	7/17/2014 12:23	12.304
569	7/17/2014 12:38	12.304
570	7/17/2014 12:53	12.304
571	7/17/2014 13:08	12.304
572	7/17/2014 13:23	12.304
573	7/17/2014 13:38	12.304
574	7/17/2014 13:53	12.304
575	7/17/2014 14:08	12.207
576	7/17/2014 14:23	12.11
577	7/17/2014 14:38	12.207
578	7/17/2014 14:53	12.207
579	7/17/2014 15:08	12.207
580	7/17/2014 15:23	12.207
581	7/17/2014 15:38	12.304
582	7/17/2014 15:53	12.304
583	7/17/2014 16:08	12.207
584	7/17/2014 16:23	12.304
585	7/17/2014 16:38	12.304
586	7/17/2014 16:53	12.11
587	7/17/2014 17:08	12.11
588	7/17/2014 17:23	12.11
589	7/17/2014 17:38	12.207
590	7/17/2014 17:53	12.207
591	7/17/2014 18:08	12.304
592	7/17/2014 18:23	12.207
593	7/17/2014 18:38	12.207
594	7/17/2014 18:53	12.11
595	7/17/2014 19:08	12.304
596	7/17/2014 19:23	12.401
597	7/17/2014 19:38	12.304
598	7/17/2014 19:53	12.594
599	7/17/2014 20:08	12.497
600	7/17/2014 20:23	12.594
601	7/17/2014 20:38	12.69
602	7/17/2014 20:53	12.69
603	7/17/2014 21:08	12.69
604	7/17/2014 21:23	12.69
605	7/17/2014 21:38	12.497
606	7/17/2014 21:53	12.497
607	7/17/2014 22:08	12.497
608	7/17/2014 22:23	12.401
609	7/17/2014 22:38	12.497
610	7/17/2014 22:53	12.497
611	7/17/2014 23:08	12.497
612	7/17/2014 23:23	12.497
613	7/17/2014 23:38	12.401
614	7/17/2014 23:53	12.401
615	7/18/2014 0:08	12.401
616	7/18/2014 0:23	12.401
617	7/18/2014 0:38	12.401
618	7/18/2014 0:53	12.497
619	7/18/2014 1:08	12.497
620	7/18/2014 1:23	12.497
621	7/18/2014 1:38	12.497
622	7/18/2014 1:53	12.497
623	7/18/2014 2:08	12.401
624	7/18/2014 2:23	12.304
625	7/18/2014 2:38	12.304
626	7/18/2014 2:53	12.304
627	7/18/2014 3:08	12.304
628	7/18/2014 3:23	12.304
629	7/18/2014 3:38	12.207
630	7/18/2014 3:53	12.207
631	7/18/2014 4:08	12.207
632	7/18/2014 4:23	12.207
633	7/18/2014 4:38	12.207
634	7/18/2014 4:53	12.207
635	7/18/2014 5:08	12.207
636	7/18/2014 5:23	12.207
637	7/18/2014 5:38	12.207
638	7/18/2014 5:53	12.11
639	7/18/2014 6:08	12.207
640	7/18/2014 6:23	12.207
641	7/18/2014 6:38	12.207
642	7/18/2014 6:53	12.207
643	7/18/2014 7:08	12.207
644	7/18/2014 7:23	12.207
645	7/18/2014 7:38	12.207
646	7/18/2014 7:53	12.207
647	7/18/2014 8:08	12.207
648	7/18/2014 8:23	12.207
649	7/18/2014 8:38	12.304
650	7/18/2014 8:53	12.304
651	7/18/2014 9:08	12.304
652	7/18/2014 9:23	12.304
653	7/18/2014 9:38	12.304
654	7/18/2014 9:53	12.304
655	7/18/2014 10:08	12.207
656	7/18/2014 10:23	12.207
657	7/18/2014 10:38	12.207
658	7/18/2014 10:53	12.304
659	7/18/2014 11:08	12.401
660	7/18/2014 11:23	12.401
661	7/18/2014 11:38	12.497
662	7/18/2014 11:53	12.401
663	7/18/2014 12:08	12.497
664	7/18/2014 12:23	12.497
665	7/18/2014 12:38	12.883
666	7/18/2014 12:53	12.883
667	7/18/2014 13:08	12.883
668	7/18/2014 13:23	12.594
669	7/18/2014 13:38	12.69
670	7/18/2014 13:53	12.69
671	7/18/2014 14:08	12.594
672	7/18/2014 14:23	12.883
673	7/18/2014 14:38	12.787
674	7/18/2014 14:53	12.787
675	7/18/2014 15:08	12.69
676	7/18/2014 15:23	12.497
677	7/18/2014 15:38	12.594
678	7/18/2014 15:53	12.594
679	7/18/2014 16:08	12.497
680	7/18/2014 16:23	12.497
681	7/18/2014 16:38	12.594
682	7/18/2014 16:53	12.497
683	7/18/2014 17:08	12.401
684	7/18/2014 17:23	12.304
685	7/18/2014 17:38	12.207
686	7/18/2014 17:53	12.304
687	7/18/2014 18:08	12.304
688	7/18/2014 18:23	12.304
689	7/18/2014 18:38	12.304
690	7/18/2014 18:53	12.304
691	7/18/2014 19:08	12.207
692	7/18/2014 19:23	12.207
693	7/18/2014 19:38	12.207
694	7/18/2014 19:53	12.207
695	7/18/2014 20:08	12.304
696	7/18/2014 20:23	12.401
697	7/18/2014 20:38	12.401
698	7/18/2014 20:53	12.401
699	7/18/2014 21:08	12.401
700	7/18/2014 21:23	12.304
701	7/18/2014 21:38	12.401
702	7/18/2014 21:53	12.497
703	7/18/2014 22:08	12.69
704	7/18/2014 22:23	12.69
705	7/18/2014 22:38	12.787
706	7/18/2014 22:53	12.787
707	7/18/2014 23:08	12.497
708	7/18/2014 23:23	12.497
709	7/18/2014 23:38	12.497
710	7/18/2014 23:53	12.594
711	7/19/2014 0:08	12.594
712	7/19/2014 0:23	12.594
713	7/19/2014 0:38	12.594
714	7/19/2014 0:53	12.594
715	7/19/2014 1:08	12.594
716	7/19/2014 1:23	12.594
717	7/19/2014 1:38	12.594
718	7/19/2014 1:53	12.594
719	7/19/2014 2:08	12.497
720	7/19/2014 2:23	12.497
721	7/19/2014 2:38	12.401
722	7/19/2014 2:53	12.304
723	7/19/2014 3:08	12.304
724	7/19/2014 3:23	12.304
725	7/19/2014 3:38	12.304
726	7/19/2014 3:53	12.304
727	7/19/2014 4:08	12.207
728	7/19/2014 4:23	12.207
729	7/19/2014 4:38	12.207
730	7/19/2014 4:53	12.304
731	7/19/2014 5:08	12.207
732	7/19/2014 5:23	12.207
733	7/19/2014 5:38	12.207
734	7/19/2014 5:53	12.207
735	7/19/2014 6:08	12.207
736	7/19/2014 6:23	12.207
737	7/19/2014 6:38	12.304
738	7/19/2014 6:53	12.207
739	7/19/2014 7:08	12.207
740	7/19/2014 7:23	12.207
741	7/19/2014 7:38	12.207
742	7/19/2014 7:53	12.207
743	7/19/2014 8:08	12.207
744	7/19/2014 8:23	12.207
745	7/19/2014 8:38	12.207
746	7/19/2014 8:53	12.207
747	7/19/2014 9:08	12.304
748	7/19/2014 9:23	12.304
749	7/19/2014 9:38	12.304
750	7/19/2014 9:53	12.304
751	7/19/2014 10:08	12.401
752	7/19/2014 10:23	12.401
753	7/19/2014 10:38	12.401
754	7/19/2014 10:53	12.401
755	7/19/2014 11:08	12.304
756	7/19/2014 11:23	12.304
757	7/19/2014 11:38	12.304
758	7/19/2014 11:53	12.401
759	7/19/2014 12:08	12.497
760	7/19/2014 12:23	12.497
761	7/19/2014 12:38	12.497
762	7/19/2014 12:53	12.497
763	7/19/2014 13:08	12.497
764	7/19/2014 13:23	12.497
765	7/19/2014 13:38	12.594
766	7/19/2014 13:53	12.594
767	7/19/2014 14:08	12.69
768	7/19/2014 14:23	12.69
769	7/19/2014 14:38	12.69
770	7/19/2014 14:53	12.69
771	7/19/2014 15:08	12.69
772	7/19/2014 15:23	12.69
773	7/19/2014 15:38	12.594
774	7/19/2014 15:53	12.594
775	7/19/2014 16:08	12.594
776	7/19/2014 16:23	12.594
777	7/19/2014 16:38	12.69
778	7/19/2014 16:53	12.69
779	7/19/2014 17:08	12.69
780	7/19/2014 17:23	12.69
781	7/19/2014 17:38	12.787
782	7/19/2014 17:53	12.787
783	7/19/2014 18:08	12.787
784	7/19/2014 18:23	12.787
785	7/19/2014 18:38	12.883
786	7/19/2014 18:53	12.883
787	7/19/2014 19:08	12.883
788	7/19/2014 19:23	12.883
789	7/19/2014 19:38	12.883
790	7/19/2014 19:53	12.883
791	7/19/2014 20:08	12.883
792	7/19/2014 20:23	12.883
793	7/19/2014 20:38	12.787
794	7/19/2014 20:53	12.787
795	7/19/2014 21:08	12.787
796	7/19/2014 21:23	12.69
797	7/19/2014 21:38	12.69
798	7/19/2014 21:53	12.69
799	7/19/2014 22:08	12.69
800	7/19/2014 22:23	12.787
801	7/19/2014 22:38	12.883
802	7/19/2014 22:53	12.883
803	7/19/2014 23:08	12.594
804	7/19/2014 23:23	12.787
805	7/19/2014 23:38	12.883
806	7/19/2014 23:53	12.69
807	7/20/2014 0:08	12.594
808	7/20/2014 0:23	12.883
809	7/20/2014 0:38	12.98
810	7/20/2014 0:53	12.787
811	7/20/2014 1:08	12.69
812	7/20/2014 1:23	12.787
813	7/20/2014 1:38	12.787
814	7/20/2014 1:53	12.69
815	7/20/2014 2:08	12.69
816	7/20/2014 2:23	12.69
817	7/20/2014 2:38	12.69
818	7/20/2014 2:53	12.69
819	7/20/2014 3:08	12.594
820	7/20/2014 3:23	12.594
821	7/20/2014 3:38	12.594
822	7/20/2014 3:53	12.69
823	7/20/2014 4:08	12.69
824	7/20/2014 4:23	12.69
825	7/20/2014 4:38	12.69
826	7/20/2014 4:53	12.883
827	7/20/2014 5:08	12.69
828	7/20/2014 5:23	12.594
829	7/20/2014 5:38	12.69
830	7/20/2014 5:53	12.69
831	7/20/2014 6:08	12.69
832	7/20/2014 6:23	12.69
833	7/20/2014 6:38	12.69
834	7/20/2014 6:53	12.69
835	7/20/2014 7:08	12.69
836	7/20/2014 7:23	12.69
837	7/20/2014 7:38	12.594
838	7/20/2014 7:53	12.594
839	7/20/2014 8:08	12.594
840	7/20/2014 8:23	12.69
841	7/20/2014 8:38	12.69
842	7/20/2014 8:53	12.69
843	7/20/2014 9:08	12.69
844	7/20/2014 9:23	12.69
845	7/20/2014 9:38	12.883
846	7/20/2014 9:53	12.98
847	7/20/2014 10:08	12.98
848	7/20/2014 10:23	13.076
849	7/20/2014 10:38	13.076
850	7/20/2014 10:53	13.076
851	7/20/2014 11:08	13.076
852	7/20/2014 11:23	13.173
853	7/20/2014 11:38	13.076
854	7/20/2014 11:53	12.98
855	7/20/2014 12:08	12.883
856	7/20/2014 12:23	12.883
857	7/20/2014 12:38	12.787
858	7/20/2014 12:53	12.69
859	7/20/2014 13:08	12.787
860	7/20/2014 13:23	12.787
861	7/20/2014 13:38	12.69
862	7/20/2014 13:53	12.594
863	7/20/2014 14:08	12.69
864	7/20/2014 14:23	12.883
865	7/20/2014 14:38	12.883
866	7/20/2014 14:53	12.883
867	7/20/2014 15:08	12.98
868	7/20/2014 15:23	13.076
869	7/20/2014 15:38	12.883
870	7/20/2014 15:53	12.98
871	7/20/2014 16:08	12.883
872	7/20/2014 16:23	12.69
873	7/20/2014 16:38	12.69
874	7/20/2014 16:53	12.69
875	7/20/2014 17:08	12.69
876	7/20/2014 17:23	12.594
877	7/20/2014 17:38	12.594
878	7/20/2014 17:53	12.594
879	7/20/2014 18:08	12.69
880	7/20/2014 18:23	12.594
881	7/20/2014 18:38	12.497
882	7/20/2014 18:53	12.401
883	7/20/2014 19:08	12.401
884	7/20/2014 19:23	12.401